Location: Newark
(46.7000°N, 60.6000°W)
Time: 17:08:00
(UTC+00:00)

A-11 Canister half - All Passes

Search period start: 21 October 2020 00:00
Search period end: 31 October 2020 00:00
Orbit: 1515 x 1685 km, 47.2° (Epoch: 20 October)

Date Brightness Start Highest point End Pass type
(mag) Time Alt. Az. Time Alt. Az. Time Alt. Az.
21 Oct - 01:32:32 10° SSW 01:41:48 43° SE 01:50:48 10° ENE visible
21 Oct - 03:36:10 10° WSW 03:46:11 82° SSE 03:55:51 10° ENE visible
21 Oct - 05:41:26 10° W 05:51:21 89° N 06:00:53 10° E visible
21 Oct - 07:46:40 10° WNW 07:56:05 60° SSW 08:05:11 10° SE visible
21 Oct - 09:52:47 10° W 09:59:28 22° SW 10:06:04 10° S visible
21 Oct - 23:13:20 10° SE 23:16:00 11° ESE 23:18:39 10° ESE visible
22 Oct - 01:09:45 10° SSW 01:18:55 41° SE 01:27:51 10° ENE visible
22 Oct - 03:13:12 10° WSW 03:23:14 81° SSE 03:32:56 10° ENE night (unlit)
22 Oct - 05:18:28 10° W 05:28:24 88° N 05:37:58 10° E visible
22 Oct - 07:23:43 10° WNW 07:33:12 62° SSW 07:42:22 10° SE visible
22 Oct - 09:29:41 10° W 09:36:41 24° SW 09:43:33 10° S visible
22 Oct - 22:52:41 10° ESE 22:53:13 10° ESE 22:53:45 10° ESE visible
23 Oct - 00:47:00 10° SSW 00:56:03 39° SE 01:04:53 10° ENE visible
23 Oct - 02:50:16 10° WSW 03:00:18 79° SSE 03:10:01 10° ENE night (unlit)
23 Oct - 04:55:30 10° W 05:05:28 87° N 05:15:03 10° E visible
23 Oct - 07:00:45 10° WNW 07:10:19 65° SSW 07:19:33 10° SE visible
23 Oct - 09:06:35 10° W 09:13:52 25° SW 09:21:00 10° S visible
24 Oct - 00:24:15 10° SSW 00:33:11 37° SE 00:41:56 10° ENE visible
24 Oct - 02:27:19 10° WSW 02:37:22 77° SSE 02:47:06 10° ENE visible
24 Oct - 04:32:30 10° W 04:42:31 87° N 04:52:08 10° E visible
24 Oct - 06:37:47 10° WNW 06:47:26 67° SSW 06:56:43 10° SE visible
24 Oct - 08:43:30 10° W 08:51:04 27° SW 08:58:27 10° S visible
25 Oct - 00:01:31 10° SSW 00:10:19 35° SE 00:18:57 10° ENE visible
25 Oct - 02:04:23 10° WSW 02:14:26 75° SSE 02:24:11 10° ENE visible
25 Oct - 04:09:32 10° W 04:19:33 87° N 04:29:13 10° E visible
25 Oct - 06:14:49 10° WNW 06:24:32 69° SSW 06:33:52 10° SE visible
25 Oct - 08:20:28 10° WNW 08:28:15 29° SW 08:35:51 10° S visible
25 Oct - 23:38:48 10° SSW 23:47:27 34° SE 23:55:57 10° ENE visible
26 Oct - 01:41:28 10° WSW 01:51:30 73° SSE 02:01:15 10° ENE visible
26 Oct - 03:46:33 10° W 03:56:36 87° N 04:06:17 10° E night (unlit)
26 Oct - 05:51:51 10° WNW 06:01:38 72° SSW 06:11:02 10° ESE visible
26 Oct - 07:57:24 10° WNW 08:05:26 31° SW 08:13:15 10° SSE visible
26 Oct - 23:16:06 10° SSW 23:24:36 32° SE 23:32:57 10° ENE visible
27 Oct - 01:18:32 10° SW 01:28:34 71° SSE 01:38:21 10° ENE visible
27 Oct - 03:23:34 10° W 03:33:39 87° N 03:43:23 10° E visible
27 Oct - 05:28:53 10° WNW 05:38:43 74° SSW 05:48:10 10° ESE visible
27 Oct - 07:34:23 10° WNW 07:42:37 33° SW 07:50:37 10° SSE visible
27 Oct - 22:53:26 10° S 23:01:45 30° SE 23:09:56 10° ENE visible
28 Oct - 00:55:37 10° SW 01:05:39 69° SSE 01:15:25 10° ENE visible
28 Oct - 03:00:35 10° W 03:10:42 87° N 03:20:27 10° E visible
28 Oct - 05:05:56 10° WNW 05:15:48 76° SSW 05:25:18 10° ESE visible
28 Oct - 07:11:21 10° WNW 07:19:47 35° SW 07:27:58 10° SSE visible
28 Oct - 22:30:48 10° S 22:38:54 28° SE 22:46:54 10° ENE visible
29 Oct - 00:32:42 10° SW 00:42:44 67° SSE 00:52:29 10° ENE visible
29 Oct - 02:37:35 10° W 02:47:44 87° N 02:57:31 10° E visible
29 Oct - 04:42:57 10° WNW 04:52:53 78° SSW 05:02:25 10° ESE night (unlit)
29 Oct - 06:48:20 10° WNW 06:56:57 37° SW 07:05:17 10° SSE visible
29 Oct - 22:08:10 10° S 22:16:04 27° SE 22:23:51 10° E visible
30 Oct - 00:09:49 10° SW 00:19:48 65° SSE 00:29:34 10° ENE visible
30 Oct - 02:14:37 10° W 02:24:46 88° N 02:34:36 10° E visible
30 Oct - 04:19:58 10° WNW 04:29:58 80° SSW 04:39:33 10° ESE night (unlit)
30 Oct - 06:25:20 10° WNW 06:34:06 39° SW 06:42:36 10° SSE visible
30 Oct - 21:45:34 10° S 21:53:14 25° SE 22:00:48 10° E visible
